Regional Weather Roundup
Issued by NWS

Home | Current Version | Previous Version | Graphics & Text | Print | Product List | Glossary Off
Versions: 1 2 3 4 5 6 7 8 9 10 11 12 13 14 15 16 17 18 19 20 21 22 23 24 25 26 27 28 29 30 31 32 33 34 35 36 37 38 39 40 41 42 43 44 45 46 47 48 49 50

000
ASUS43 KTOP 030408
RWRKS

WEATHER ROUNDUP FOR KANSAS
NATIONAL WEATHER SERVICE GOODLAND KS
1100 PM CDT TUE JUN 02 2015

NOTE:  "FAIR" INDICATES FEW OR NO CLOUDS BELOW 12,000 FEET WITH NO
SIGNIFICANT WEATHER AND/OR OBSTRUCTIONS TO VISIBILITY.

KSZ001>006-013>018-027>032-041>047-030500-
NORTHWEST KANSAS

CITY           SKY/WX    TMP DP  RH WIND       PRES   REMARKS
GOODLAND       CLEAR     64  58  80 S8        29.80S
HAYS           CLEAR     75  63  64 S13       29.81R
HILL CITY      CLEAR     77  65  66 S13G20    29.77S
RUSSELL        CLEAR     76  66  71 S16       29.79S
$$

KSZ061>065-074>080-084>089-030500-
SOUTHWEST KANSAS

CITY           SKY/WX    TMP DP  RH WIND       PRES   REMARKS
DODGE CITY     CLEAR     75  60  59 S16G24    29.85R
ELKHART          N/A     72  58  61 S12         N/A
GARDEN CITY    CLEAR     73  61  65 SE14      29.83R
GREAT BEND     CLEAR     75  64  69 S15       29.82S
LIBERAL        CLEAR     73  59  60 S13       29.86R
PRATT          CLEAR     75  63  64 S15G22    29.87R
$$

KSZ066>073-081>083-090>101-030500-
SOUTHEAST KANSAS

CITY           SKY/WX    TMP DP  RH WIND       PRES   REMARKS
CHANUTE        CLEAR     71  68  90 SE7       29.94R
COFFEYVILLE    CLEAR     73  67  81 SE8       29.93R
HUTCHINSON     CLEAR     77  66  68 S15       29.86R
MEDICINE LODGE   N/A     77  66  68 S13G20    29.86R
NEWTON         CLEAR     73  64  73 SE12      29.91R
PARSONS        CLEAR     74  67  78 SE5       29.95R
WICHITA INTL   PTCLDY    76  67  73 S13       29.88R
WICHITA JABRA  CLEAR     75  67  76 SE14      29.88S
WICHITA MCCONL CLEAR     75  68  78 SE13      29.89R
WINFIELD       CLEAR     75  68  78 SE10      29.91R
$$

KSZ007>012-019>026-033>040-048>060-102>105-030500-
NORTHEAST KANSAS

CITY           SKY/WX    TMP DP  RH WIND       PRES   REMARKS
CONCORDIA      CLEAR     73  67  81 MISG      29.84S
EMPORIA        CLEAR     72  66  81 SE12      29.92R
LAWRENCE       MOCLDY    69  60  73 SE9       29.95R
MANHATTAN      CLOUDY    73  68  84 E7        29.89R
MARYSVILLE     CLEAR     68  64  88 SE12G20   29.89S
OLATHE IND     CLEAR     67  59  75 SE8       29.97S
OLATHE EXE     CLEAR     67  59  75 SE8       29.96S
SALINA         CLEAR     77  67  71 SE15      29.84R
TOPEKA BILLARD CLEAR     69  63  81 SE10      29.94R
TOPEKA FORBES  CLEAR     70  63  78 SE12      29.94R
$$



USA.gov is the U.S. government's official web portal to all federal, state and local government web resources and services.